カタログに戻る

CZ-3C DEB

LostGTO
NORAD 40859·DEBRIS·🇨🇳 China

打ち上げ Feb 24, 2012 から Xichang Satellite Launch Center

Loading…

TLE

古いSource: Space-Track

元期: Nov 30, 2021, 18:26 UTC

1 40859U 12008Z   21334.76868353  .00000044  00000-0  62459-3 0  9993
2 40859  21.6291 232.3611 7239620 220.2554  53.8528  2.20922212 56325

AllMySatでCZ-3C DEBをリアルタイム追跡

Download on the App Store